Total_Precipitation_Accumulation
1.00 1.13 1.20 1.48 1.74 1.91 2.10 2.24 2.32 2.37 2.58 2.72 2.70 2.62 2.47 2.24 2.13 2.09 1.95 1.81 1.73 1.77 1.77 1.63 1.53 1.52 1.44 1.29 1.18 1.08 1.06 1.03 0.99 1.01 0.90 0.77 0.71 0.65 0.57 0.51 0.49 0.47 0.44
0.87 1.00 1.06 1.20 1.42 1.65 1.89 2.15 2.26 2.34 2.32 2.36 2.56 2.69 2.77 2.58 2.30 2.12 2.02 1.91 1.82 1.81 1.79 1.75 1.68 1.61 1.57 1.50 1.44 1.37 1.28 1.23 1.23 1.23 1.22 1.05 0.87 0.69 0.59 0.59 0.58 0.54 0.53
0.71 0.82 0.92 1.13 1.26 1.41 1.66 1.98 2.16 2.30 2.30 2.30 2.54 2.75 2.88 2.71 2.39 2.04 1.88 1.89 1.90 1.91 1.83 1.81 1.82 1.75 1.65 1.55 1.50 1.45 1.40 1.34 1.32 1.33 1.42 1.27 0.99 0.73 0.60 0.54 0.54 0.55 0.56
0.60 0.66 0.79 0.95 1.08 1.25 1.44 1.62 1.84 2.03 2.22 2.29 2.33 2.36 2.43 2.41 2.17 2.05 1.96 1.97 1.97 1.97 1.92 1.87 1.87 1.83 1.74 1.59 1.54 1.48 1.39 1.36 1.33 1.31 1.26 1.19 1.01 0.93 0.79 0.60 0.55 0.57 0.57
0.62 0.62 0.75 0.91 0.98 1.11 1.36 1.50 1.58 1.78 2.02 2.16 2.21 2.31 2.25 2.25 2.29 2.24 2.16 2.07 2.02 1.98 1.91 1.86 1.85 1.77 1.69 1.66 1.67 1.60 1.54 1.45 1.38 1.31 1.27 1.26 1.11 0.96 0.94 0.78 0.61 0.60 0.60
0.69 0.74 0.83 0.91 0.95 1.03 1.22 1.44 1.45 1.54 1.70 1.94 2.15 2.20 2.10 2.09 2.12 2.09 2.04 2.03 2.03 2.00 1.91 1.81 1.76 1.72 1.69 1.67 1.69 1.73 1.68 1.62 1.54 1.44 1.35 1.35 1.29 1.13 1.08 1.02 0.80 0.71 0.65
0.65 0.74 0.82 0.83 0.87 0.95 1.08 1.26 1.35 1.43 1.51 1.67 1.86 2.03 2.08 2.05 2.04 2.03 1.98 1.90 1.82 1.74 1.73 1.75 1.69 1.64 1.59 1.60 1.63 1.68 1.68 1.64 1.60 1.51 1.44 1.40 1.34 1.23 1.21 1.18 1.02 0.89 0.77
0.52 0.57 0.68 0.76 0.84 0.90 0.94 1.00 1.06 1.13 1.21 1.28 1.42 1.59 1.80 1.88 1.82 1.83 1.81 1.77 1.69 1.66 1.66 1.66 1.66 1.66 1.63 1.59 1.60 1.61 1.61 1.61 1.55 1.45 1.39 1.33 1.26 1.26 1.28 1.26 1.28 1.24 1.02
0.52 0.53 0.61 0.66 0.73 0.81 0.88 0.87 0.89 0.94 1.03 1.05 1.13 1.22 1.41 1.56 1.59 1.63 1.59 1.50 1.48 1.54 1.55 1.54 1.54 1.57 1.58 1.56 1.57 1.56 1.53 1.54 1.51 1.46 1.38 1.26 1.14 1.13 1.16 1.18 1.26 1.40 1.32
0.50 0.49 0.55 0.59 0.63 0.70 0.77 0.78 0.80 0.83 0.95 0.99 1.02 1.05 1.13 1.23 1.37 1.47 1.38 1.32 1.32 1.34 1.37 1.36 1.36 1.38 1.41 1.41 1.44 1.42 1.39 1.37 1.33 1.33 1.35 1.30 1.19 1.15 1.17 1.23 1.28 1.37 1.43
0.50 0.52 0.56 0.59 0.63 0.69 0.70 0.68 0.76 0.81 0.90 0.94 0.91 0.90 0.95 1.01 1.07 1.15 1.18 1.14 1.17 1.16 1.15 1.15 1.17 1.16 1.19 1.23 1.26 1.23 1.22 1.26 1.25 1.23 1.27 1.29 1.26 1.27 1.25 1.30 1.36 1.42 1.50
0.47 0.50 0.51 0.55 0.61 0.65 0.62 0.59 0.66 0.73 0.84 0.87 0.81 0.80 0.85 0.90 0.93 0.95 0.99 0.99 1.01 1.03 1.04 1.05 1.05 1.01 0.99 1.03 1.07 1.09 1.09 1.12 1.13 1.15 1.21 1.24 1.27 1.32 1.33 1.37 1.40 1.42 1.43
0.34 0.36 0.38 0.41 0.44 0.46 0.48 0.54 0.57 0.56 0.61 0.65 0.62 0.62 0.64 0.70 0.78 0.81 0.80 0.82 0.87 0.90 0.92 0.94 0.95 0.95 0.92 0.94 0.97 0.96 0.97 0.99 1.01 1.02 1.05 1.07 1.12 1.21 1.24 1.29 1.33 1.32 1.32
0.26 0.28 0.30 0.30 0.33 0.35 0.39 0.45 0.44 0.44 0.51 0.53 0.51 0.51 0.52 0.54 0.60 0.65 0.64 0.64 0.68 0.73 0.77 0.82 0.84 0.84 0.85 0.89 0.94 0.97 0.96 0.94 0.93 0.93 0.95 0.98 1.02 1.06 1.12 1.20 1.23 1.25 1.25
0.21 0.24 0.25 0.26 0.29 0.31 0.33 0.35 0.39 0.46 0.52 0.55 0.54 0.51 0.48 0.49 0.52 0.57 0.58 0.56 0.57 0.57 0.58 0.64 0.72 0.77 0.78 0.81 0.85 0.88 0.92 0.93 0.93 0.94 0.98 1.03 1.14 1.15 1.11 1.08 1.07 1.10 1.17
0.17 0.17 0.19 0.21 0.23 0.28 0.32 0.36 0.43 0.53 0.58 0.60 0.57 0.55 0.51 0.48 0.45 0.45 0.46 0.46 0.48 0.49 0.52 0.56 0.59 0.66 0.72 0.90 0.89 0.82 0.82 0.90 0.95 0.97 0.96 1.00 1.11 1.09 1.07 1.01 0.97 0.99 1.07
0.14 0.15 0.15 0.18 0.21 0.29 0.38 0.45 0.50 0.59 0.62 0.64 0.60 0.54 0.50 0.47 0.44 0.41 0.41 0.43 0.45 0.48 0.52 0.55 0.58 0.63 0.77 0.96 0.92 0.94 0.85 0.87 0.93 0.95 0.94 0.89 0.86 0.89 0.80 0.85 0.90 0.90 0.91
0.11 0.11 0.12 0.14 0.15 0.21 0.31 0.40 0.49 0.61 0.64 0.65 0.64 0.62 0.61 0.61 0.63 0.62 0.62 0.62 0.60 0.62 0.67 0.71 0.74 0.77 0.87 0.96 0.89 0.86 0.78 0.80 0.82 0.80 0.78 0.74 0.69 0.68 0.69 0.72 0.77 0.68 0.64
0.08 0.08 0.09 0.10 0.10 0.13 0.21 0.31 0.44 0.60 0.74 0.80 0.80 0.81 0.84 0.89 0.93 0.95 0.94 0.93 0.92 0.91 0.88 0.84 0.79 0.76 0.77 0.80 0.76 0.72 0.66 0.67 0.65 0.61 0.60 0.60 0.57 0.66 0.75 0.70 0.65 0.58 0.56
0.11 0.10 0.10 0.12 0.14 0.16 0.23 0.37 0.54 0.70 0.81 0.86 0.90 0.94 1.00 1.06 1.04 1.02 0.99 0.92 0.87 0.86 0.83 0.81 0.76 0.68 0.62 0.59 0.56 0.55 0.50 0.49 0.45 0.43 0.43 0.50 0.51 0.62 0.71 0.63 0.61 0.58 0.48
0.21 0.22 0.23 0.25 0.26 0.29 0.38 0.53 0.64 0.74 0.78 0.79 0.81 0.85 0.85 0.87 0.84 0.81 0.77 0.73 0.67 0.62 0.59 0.55 0.50 0.45 0.42 0.42 0.41 0.43 0.40 0.40 0.41 0.40 0.38 0.40 0.52 0.58 0.62 0.63 0.56 0.55 0.57
0.25 0.33 0.38 0.40 0.40 0.42 0.49 0.57 0.59 0.59 0.58 0.56 0.55 0.54 0.51 0.49 0.49 0.50 0.49 0.47 0.45 0.41 0.39 0.36 0.35 0.31 0.30 0.31 0.34 0.39 0.43 0.45 0.42 0.40 0.37 0.41 0.55 0.61 0.62 0.58 0.57 0.63 0.67
0.12 0.16 0.22 0.26 0.27 0.27 0.31 0.34 0.30 0.26 0.24 0.22 0.22 0.23 0.21 0.22 0.24 0.26 0.27 0.28 0.29 0.29 0.29 0.29 0.29 0.28 0.27 0.29 0.35 0.39 0.46 0.52 0.48 0.43 0.47 0.51 0.56 0.59 0.57 0.56 0.59 0.60 0.57
0.07 0.08 0.08 0.09 0.10 0.10 0.12 0.13 0.11 0.09 0.09 0.09 0.10 0.12 0.15 0.17 0.19 0.22 0.23 0.24 0.24 0.24 0.26 0.27 0.27 0.27 0.26 0.27 0.30 0.36 0.42 0.51 0.52 0.50 0.51 0.55 0.56 0.55 0.53 0.54 0.54 0.52 0.52
0.08 0.09 0.08 0.08 0.09 0.09 0.09 0.09 0.09 0.09 0.09 0.09 0.11 0.12 0.14 0.17 0.18 0.20 0.22 0.25 0.25 0.26 0.30 0.31 0.30 0.32 0.31 0.28 0.39 0.46 0.48 0.52 0.56 0.61 0.58 0.54 0.51 0.49 0.48 0.47 0.47 0.48 0.51
0.11 0.11 0.11 0.12 0.13 0.14 0.15 0.15 0.15 0.14 0.14 0.15 0.15 0.17 0.19 0.19 0.20 0.21 0.22 0.24 0.27 0.29 0.31 0.32 0.33 0.31 0.33 0.37 0.45 0.50 0.54 0.59 0.67 0.72 0.63 0.51 0.45 0.44 0.44 0.46 0.48 0.49 0.51